DW3485 Weather Reports


time (UTC)temp
C
wind
direction
speed
KPH
gust
KPH
rain 1hr
cm
rain 24hr
cm
rain mn
cm
humidity
%
barometer
mb
20260502213547 9 0 0.0 0.0 0.15 0.18 0.18 91 1009.5
20260502213051 8 0 0.0 0.0 0.13 0.15 0.15 89 1009.5
20260502212547 8 0 0.0 3.2 0.13 0.15 0.15 89 1009.5
20260502212049 8 0 0.0 3.2 0.08 0.10 0.10 89 1009.4
20260502211602 8 348 0.0 4.8 0.05 0.08 0.08 89 1009.4
20260502211050 8 0 0.0 4.8 0.05 0.08 0.08 89 1009.4
20260502210549 8 335 1.6 8.0 0.03 0.05 0.05 88 1009.5
20260502210116 9 335 1.6 9.7 0.03 0.05 0.05 87 1009.4
20260502205548 9 342 4.8 16.1 0.00 0.03 0.03 87 1009.4
20260502205048 9 332 4.8 16.1 0.00 0.03 0.03 87 1009.4
20260502204602 9 329 6.4 17.7 0.00 0.03 0.03 85 1009.5
20260502204048 10 337 9.7 17.7 0.00 0.03 0.03 82 1009.4
20260502203548 10 360 8.0 24.1 0.00 0.03 0.03 79 1009.4
20260502203057 11 0 9.7 24.1 0.00 0.03 0.03 76 1009.5
20260502202549 11 279 1.6 12.9 0.00 0.03 0.03 71 1009.2
20260502202047 12 0 1.6 12.9 0.00 0.03 0.03 69 1009.1
20260502201556 12 0 3.2 12.9 0.00 0.03 0.03 69 1009.1
20260502201047 12 213 1.6 12.9 0.00 0.03 0.03 69 1009.1
20260502200547 12 208 3.2 11.3 0.00 0.03 0.03 69 1009.2
20260502200057 12 165 1.6 11.3 0.00 0.03 0.03 65 1009.2
20260502195548 12 121 3.2 14.5 0.00 0.03 0.03 67 1009.2
20260502195052 12 0 1.6 14.5 0.00 0.03 0.03 66 1009.1
20260502194558 13 194 1.6 9.7 0.00 0.03 0.03 67 1009.1
20260502194053 13 161 3.2 9.7 0.00 0.03 0.03 65 1009.1
20260502193548 12 205 3.2 14.5 0.00 0.03 0.03 65 1009.3
20260502193102 12 0 4.8 14.5 0.00 0.03 0.03 66 1009.5
20260502192549 12 192 6.4 14.5 0.00 0.03 0.03 66 1009.5
20260502192048 12 234 6.4 12.9 0.00 0.03 0.03 66 1009.6
20260502191605 12 216 4.8 11.3 0.00 0.03 0.03 66 1009.7
20260502191048 12 0 4.8 12.9 0.00 0.03 0.03 65 1009.7
20260502190550 12 252 4.8 12.9 0.00 0.03 0.03 66 1009.7
20260502190107 12 280 3.2 12.9 0.00 0.03 0.03 65 1009.9
20260502185547 12 182 3.2 12.9 0.00 0.03 0.03 60 1009.9
20260502185047 12 219 4.8 14.5 0.00 0.03 0.03 62 1009.8
20260502184601 12 180 4.8 17.7 0.00 0.03 0.03 62 1009.9
20260502184048 12 208 8.0 17.7 0.00 0.03 0.03 60 1009.8
20260502183549 12 244 6.4 20.9 0.00 0.03 0.03 62 1009.9
20260502183110 12 240 8.0 20.9 0.00 0.03 0.03 61 1009.9
20260502182547 12 263 11.3 20.9 0.00 0.03 0.03 59 1010.0
20260502182047 12 218 6.4 20.9 0.00 0.03 0.03 55 1010.0
20260502181555 11 262 9.7 20.9 0.00 0.03 0.03 60 1010.0
20260502181048 12 241 4.8 17.7 0.00 0.03 0.03 63 1009.9
20260502180552 12 184 6.4 17.7 0.00 0.03 0.03 67 1010.1
20260502164048 11 243 3.2 9.7 0.00 0.00 0.00 69 1010.4
20260502163549 11 253 0.0 12.9 0.00 0.00 0.00 72 1010.6
20260502163057 11 223 1.6 12.9 0.00 0.00 0.00 73 1010.6
20260502162548 11 234 4.8 12.9 0.00 0.00 0.00 72 1010.7
20260502162048 11 217 4.8 12.9 0.00 0.00 0.00 71 1010.6
20260502161620 11 0 0.0 12.9 0.00 0.00 0.00 69 1010.7
20260502161052 11 225 4.8 12.9 0.00 0.00 0.00 67 1010.8
20260502160548 11 254 4.8 16.1 0.00 0.00 0.00 64 1010.7
20260502152053 11 186 1.6 6.4 0.00 0.00 0.00 76 1010.8
20260502151605 11 245 1.6 4.8 0.00 0.00 0.00 74 1010.8
20260502151049 11 190 0.0 4.8 0.00 0.00 0.00 82 1010.8
20260502150548 11 0 0.0 0.0 0.00 0.00 0.00 81 1010.9
20260502130547 8 0 0.0 3.2 0.00 0.00 0.00 85 1011.4
20260502123549 9 305 3.2 9.7 0.00 0.00 0.00 81 1011.7
20260502123051 9 266 3.2 9.7 0.00 0.00 0.00 82 1011.9
20260502122549 9 0 3.2 12.9 0.00 0.00 0.00 81 1012.0
20260502122048 9 231 6.4 16.1 0.00 0.00 0.00 81 1012.1
20260502121554 9 306 8.0 16.1 0.00 0.00 0.00 82 1012.0
20260502121050 9 272 6.4 11.3 0.00 0.00 0.00 81 1012.1
20260502120549 9 306 4.8 11.3 0.00 0.00 0.00 78 1011.9
20260502115548 9 253 4.8 8.0 0.00 0.00 0.00 83 1011.5
20260502115050 8 217 3.2 8.0 0.00 0.00 0.00 82 1011.2
20260502114553 8 206 1.6 11.3 0.00 0.00 0.00 84 1011.2
20260502114050 8 226 3.2 11.3 0.00 0.00 0.00 83 1011.2
20260502113546 8 248 4.8 8.0 0.00 0.00 0.00 84 1011.3
20260502113052 8 234 6.4 8.0 0.00 0.00 0.00 80 1011.3
20260502112549 8 0 0.0 0.0 0.00 0.00 0.00 83 1011.0
20260502112049 8 0 0.0 0.0 0.00 0.00 0.00 84 1010.8
20260502111559 8 0 0.0 0.0 0.00 0.00 0.00 83 1010.7
20260502111047 8 0 0.0 0.0 0.00 0.00 0.00 85 1010.9
20260502110550 8 0 0.0 0.0 0.00 0.00 0.00 84 1010.8
20260502110056 8 0 0.0 0.0 0.00 0.00 0.00 84 1010.9
20260502105550 8 0 0.0 3.2 0.00 0.00 0.00 85 1011.0
20260502105049 8 0 0.0 3.2 0.00 0.00 0.00 84 1011.0
20260502104550 7 254 0.0 3.2 0.00 0.00 0.00 84 1011.0
20260502104050 7 0 0.0 3.2 0.00 0.00 0.00 83 1010.8
20260502103552 7 0 0.0 4.8 0.00 0.00 0.00 84 1010.8
20260502103051 7 254 0.0 4.8 0.00 0.00 0.00 84 1010.8
20260502102548 8 254 3.2 4.8 0.00 0.00 0.00 86 1011.0
20260502102048 7 253 0.0 3.2 0.00 0.00 0.00 82 1011.0
20260502101555 7 0 0.0 3.2 0.00 0.00 0.00 84 1010.7
20260502101046 7 0 0.0 4.8 0.00 0.00 0.00 85 1010.6
20260502100548 7 0 1.6 4.8 0.00 0.00 0.00 85 1010.8
20260502091050 8 342 1.6 4.8 0.00 0.00 0.00 84 1010.6
20260502090550 7 0 1.6 4.8 0.00 0.00 0.00 83 1010.4
20260502071052 9 0 0.0 4.8 0.00 0.00 0.00 73 1010.3
20260502070549 9 0 0.0 4.8 0.00 0.00 0.00 73 1010.4
20260502070107 9 0 1.6 3.2 0.00 0.00 0.00 74 1010.4
20260502065549 9 216 0.0 4.8 0.00 0.00 0.00 69 1010.4
20260502065048 9 215 0.0 8.0 0.00 0.00 0.00 72 1010.4
20260502064554 9 252 1.6 9.7 0.00 0.00 0.00 72 1010.4
20260502064048 10 221 3.2 9.7 0.00 0.00 0.00 73 1010.5
20260502063548 10 244 3.2 6.4 0.00 0.00 0.00 73 1010.6
20260502063057 9 202 3.2 6.4 0.00 0.00 0.00 72 1010.7
20260502062549 9 241 3.2 6.4 0.00 0.00 0.00 72 1010.8
20260502062048 9 238 3.2 8.0 0.00 0.00 0.00 72 1010.8
20260502061550 9 238 3.2 8.0 0.00 0.00 0.00 72 1010.7
20260502061048 9 236 3.2 6.4 0.00 0.00 0.00 72 1010.7
20260502060550 9 211 3.2 6.4 0.00 0.00 0.00 71 1010.7
20260502060054 8 206 1.6 6.4 0.00 0.00 0.00 71 1010.7
20260502055549 8 215 3.2 6.4 0.00 0.00 0.00 71 1010.7
20260502055047 8 207 3.2 6.4 0.00 0.00 0.00 69 1010.7
20260502054556 8 207 1.6 6.4 0.00 0.00 0.00 71 1010.7
20260502054048 8 0 0.0 0.0 0.00 0.00 0.00 70 1010.7
20260502053618 8 0 0.0 0.0 0.00 0.00 0.00 70 1010.8
20260502053109 8 0 0.0 0.0 0.00 0.00 0.00 70 1010.7
20260502052548 8 0 0.0 0.0 0.00 0.00 0.00 70 1010.8
20260502052048 9 0 0.0 4.8 0.00 0.00 0.00 70 1010.8
20260502051607 9 0 0.0 4.8 0.00 0.00 0.00 67 1010.9
20260502051048 9 209 1.6 6.4 0.00 0.00 0.00 69 1010.8
20260502050550 9 210 3.2 6.4 0.00 0.00 0.00 69 1010.8
20260502050057 9 217 3.2 6.4 0.00 0.00 0.00 69 1010.9
20260502045548 9 229 1.6 4.8 0.00 0.00 0.00 68 1010.8
20260502045050 9 229 1.6 4.8 0.00 0.00 0.00 68 1010.9
20260502044557 9 240 0.0 4.8 0.00 0.00 0.00 69 1010.8
20260502044050 9 0 0.0 0.0 0.00 0.00 0.00 68 1010.9
20260502043548 9 0 0.0 0.0 0.00 0.00 0.00 69 1010.9
20260502043109 9 0 0.0 0.0 0.00 0.00 0.00 68 1010.9
20260502042551 9 0 0.0 0.0 0.00 0.00 0.00 69 1011.0
20260502042048 9 0 0.0 0.0 0.00 0.00 0.00 70 1011.0
20260502041621 9 0 0.0 0.0 0.00 0.00 0.00 69 1011.0
20260502041048 9 0 0.0 0.0 0.00 0.00 0.00 67 1011.0
20260502040548 9 0 0.0 0.0 0.00 0.00 0.00 66 1011.0
20260502040054 9 0 0.0 0.0 0.00 0.00 0.00 66 1011.1
20260502035548 9 0 0.0 0.0 0.00 0.00 0.00 66 1011.1
20260502035048 9 0 0.0 0.0 0.00 0.00 0.00 65 1011.0
20260502034556 9 0 0.0 0.0 0.00 0.00 0.00 65 1011.1
20260502034049 9 0 0.0 0.0 0.00 0.00 0.00 65 1011.0
20260502033549 10 0 0.0 0.0 0.00 0.00 0.00 66 1011.1
20260502033103 10 0 0.0 0.0 0.00 0.00 0.00 67 1011.0
20260502032548 10 0 0.0 0.0 0.00 0.00 0.00 62 1011.0
20260502032048 10 0 0.0 0.0 0.00 0.00 0.00 66 1011.1
20260502031554 10 0 0.0 0.0 0.00 0.00 0.00 68 1011.2
20260502031051 10 0 0.0 0.0 0.00 0.00 0.00 65 1011.2
20260502030548 10 0 0.0 0.0 0.00 0.00 0.00 68 1011.1
20260502030057 10 0 0.0 0.0 0.00 0.00 0.00 63 1011.1
20260502025548 10 0 0.0 0.0 0.00 0.00 0.00 65 1011.0
20260502025048 10 0 0.0 0.0 0.00 0.00 0.00 63 1011.0
20260502024554 10 0 0.0 0.0 0.00 0.00 0.00 66 1011.0
20260502024048 10 0 0.0 0.0 0.00 0.00 0.00 66 1010.9
20260502023550 9 0 0.0 0.0 0.00 0.00 0.00 63 1011.0
20260502023058 8 0 0.0 0.0 0.00 0.00 0.00 67 1011.0
20260502022550 8 0 0.0 0.0 0.00 0.00 0.00 69 1011.0
20260502022052 8 0 0.0 0.0 0.00 0.00 0.00 69 1011.1
20260502021553 8 0 0.0 0.0 0.00 0.00 0.00 67 1011.1
20260502021048 8 0 0.0 3.2 0.00 0.00 0.00 66 1011.1
20260502020548 8 0 0.0 4.8 0.00 0.00 0.00 68 1011.1
20260502020055 8 0 1.6 4.8 0.00 0.00 0.00 67 1011.0
20260502015547 8 213 0.0 4.8 0.00 0.00 0.00 64 1011.0
20260502015047 8 213 1.6 6.4 0.00 0.00 0.00 61 1011.0
20260502014554 8 0 1.6 11.3 0.00 0.00 0.00 61 1010.9
20260502014047 8 213 3.2 11.3 0.00 0.00 0.00 61 1010.8
20260502013549 8 215 4.8 11.3 0.00 0.00 0.00 65 1010.8
20260502013056 8 0 0.0 0.0 0.00 0.00 0.00 60 1010.6
20260502012548 9 0 0.0 0.0 0.00 0.00 0.00 58 1010.6
20260502012049 9 0 0.0 0.0 0.00 0.00 0.00 56 1010.6
20260502011600 10 0 0.0 0.0 0.00 0.00 0.00 59 1010.5
20260502011050 10 0 0.0 0.0 0.00 0.00 0.00 62 1010.5
20260502010548 10 0 0.0 1.6 0.00 0.00 0.00 61 1010.5
20260502005548 10 0 0.0 3.2 0.00 0.00 0.00 61 1010.4
20260502005049 10 5 1.6 3.2 0.00 0.00 0.00 60 1010.3
20260502004553 11 0 0.0 0.0 0.00 0.00 0.00 57 1010.2
20260502004048 11 0 0.0 0.0 0.00 0.00 0.00 51 1010.2
20260502003551 11 0 0.0 0.0 0.00 0.00 0.00 54 1010.2
20260502003052 11 0 0.0 0.0 0.00 0.00 0.00 57 1010.1
20260502002550 11 0 0.0 0.0 0.00 0.00 0.00 54 1009.9
20260502002050 11 0 0.0 0.0 0.00 0.00 0.00 55 1009.9
20260502001602 11 0 0.0 4.8 0.00 0.00 0.00 55 1009.8
20260502001048 12 0 0.0 6.4 0.00 0.00 0.00 50 1009.7
20260502000548 12 5 1.6 6.4 0.00 0.00 0.00 53 1009.6
20260502000056 12 5 3.2 6.4 0.00 0.00 0.00 53 1009.5
20260501235552 13 352 1.6 6.4 0.00 0.00 0.00 54 1009.5
20260501235048 14 0 0.0 4.8 0.00 0.00 0.00 45 1009.5
20260501234556 14 254 1.6 4.8 0.00 0.00 0.00 51 1009.5
20260501234049 14 0 1.6 3.2 0.00 0.00 0.00 53 1009.4
20260501233547 15 0 1.6 6.4 0.00 0.00 0.00 36 1009.3
20260501233106 15 0 1.6 6.4 0.00 0.00 0.00 38 1009.2
20260501232548 15 0 3.2 6.4 0.00 0.00 0.00 39 1009.2
20260501232048 15 0 1.6 6.4 0.00 0.00 0.00 41 1009.1
20260501231626 15 302 3.2 16.1 0.00 0.00 0.00 37 1009.1
20260501231049 15 265 4.8 16.1 0.00 0.00 0.00 38 1008.9
20260501230548 15 290 3.2 11.3 0.00 0.00 0.00 39 1009.0
20260501230052 15 319 4.8 17.7 0.00 0.00 0.00 34 1009.0
20260501225548 15 325 6.4 17.7 0.00 0.00 0.00 39 1008.9
20260501225048 15 331 6.4 16.1 0.00 0.00 0.00 38 1008.8
20260501224551 15 319 6.4 17.7 0.00 0.00 0.00 35 1008.8
20260501224049 15 343 9.7 17.7 0.00 0.00 0.00 36 1008.8
20260501223547 15 262 3.2 19.3 0.00 0.00 0.00 36 1008.9
20260501223119 15 349 9.7 19.3 0.00 0.00 0.00 33 1008.8
20260501222548 15 352 6.4 22.5 0.00 0.00 0.00 34 1008.7
20260501222049 16 329 12.9 22.5 0.00 0.00 0.00 38 1008.9
20260501221551 15 335 6.4 24.1 0.00 0.00 0.00 34 1008.8
20260501221048 15 304 9.7 24.1 0.00 0.00 0.00 37 1008.8
20260501220548 15 330 9.7 20.9 0.00 0.00 0.00 35 1008.8
20260501220051 16 309 8.0 20.9 0.00 0.00 0.00 36 1008.6
20260501215548 16 311 11.3 20.9 0.00 0.00 0.00 31 1008.6
20260501215048 16 296 11.3 29.0 0.00 0.00 0.00 34 1008.6
20260501214549 16 252 9.7 29.0 0.00 0.00 0.00 34 1008.5
20260501214048 16 341 9.7 29.0 0.00 0.00 0.00 41 1008.5